Location: Powder Track
(41.8531°N, 72.3584°W)
Time: 21:58:10
(UTC+00:00)

Vanguard 2 Rocket - Pass Details

Date: 05 August 2021
Orbit: 555 x 3324 km, 32.9° (Epoch: 18 September)

Event Time Altitude Azimuth Distance (km) Brightness Sun altitude
Rises 14:51:07 0° 256° (WSW) 2,721 9.1 53.5°
Reaches altitude 10° 14:53:54 10° 233° (SW) 1,883 8.5 53.9°
Maximum altitude 14:56:30 16° 193° (SSW) 1,641 8.6 54.3°
Drops below altitude 10° 14:59:31 10° 155° (SSE) 2,233 9.6 54.7°
Sets 15:03:18 0° 135° (SE) 3,536 10.5 55.3°
